Find Starlink 5189

NORAD ID: 54052 Int'l Des: 2022-136 Owner: SPXS Country: US Constellation: starlink operational
LEOCIRCULAR

Live Position

Loading 3D Globe...

About Starlink 5189

Description loading...

Upcoming Passes

Passes for default location (London). Set your location on the main map for personalized predictions.

Altitude History

Loading altitude history...

Two-Line Element Set

1 54052U 22136B 26121.12481681 .00000810 00000-0 68964-4 0 9999
2 54052 53.2176 68.5409 0001479 84.4501 275.6659 15.08843348195321
Epoch: May 1, 2026 • Age: 21 hours

Current Status

Altitude 539.7 km
Velocity 7.60 km/s
Sub-Earth Point 18.37°N, 5°E
Launch Date Oct 20, 2022
Age 3.5 years
Type internet

Technical Details

Classification Payload
Mass 305.00 kg
Dry Mass 290.00 kg
Total Mass 305.00 kg
Length 0.20 m
Diameter 2.80 m
Span 9.00 m
Shape Box + pan
Manufacturer SPXS
Bus Type Starlink
Phase Status In Orbit
Owner/State SPXS/US

Most Searched